Preview of NWS' New Version of Forecast
This preview is not operational and should not be used for support decisions.

Regional Weather Roundup (RWR)

Issued by National Weather Service (NWS)

                            
000
ASCA42 TJSJ 180810
RWRPR 
PUERTO RICO/U.S. VIRGIN ISLANDS HOURLY WEATHER ROUNDUP
NATIONAL WEATHER SERVICE SAN JUAN PR
400 AM AST MON FEB 18 2019

PRZ001>002-007>008-010-180900-
PUERTO RICO
  
CITY           SKY/WX    TMP DP  RH WIND       PRES   REMARKS
SAN JUAN LMM   PTCLDY    75  70  83 CALM      30.07F                  
CEIBA          MOCLDY    73  70  88 E5        30.08F                  
$$

VIZ001>002-180900-
U.S. VIRGIN ISLANDS
  
CITY           SKY/WX    TMP DP  RH WIND       PRES   REMARKS
CHARLOTTE AMA  CLEAR     75  70  83 E9        30.07F                  
CHRISTIANSTED  PTCLDY    77  70  78 E10       30.07F                  
$$

HOURLY WEATHER ROUNDUP FOR THE NEWS MEDIA
  
CITY           SKY/WX    TMP DP  RH WIND       PRES   REMARKS
ORLANDO        FAIR      69  65  86 S7        30.02S                  
NEW YORK       CLOUDY    33  33 100 NE9       29.87  FOG     WCI  25  
NEWARK         LGT RAIN  35  34  96 N3        29.89F FOG              
CHICAGO        LGT SNOW  24  23  96 NW9       30.01R VSB 3/4 WCI  14  
HARTFORD       LGT SNOW  29  28  96 E6        29.93F FOG     WCI  23  
BOSTON         LGT SNOW  29  27  92 SE8       29.96F FOG     WCI  21  
DALLAS         MOCLDY    43  27  53 NE8       30.17R                  
PHILADELPHIA   LGT RAIN  36  34  92 N7        29.83F WCI  30          
LOS ANGELES    PTCLDY    49  27  42 NW14G20   30.02S                  
WASHINGTON DC  LGT RAIN  37  35  92 S7        29.77F WCI  32